Location: Newark
(50.8086°N, 4.3114°E)
Time: 23:18:02
(UTC+00:00)

XW-2D - Pass Details

Date: 30 January 2020
Orbit: 507 x 528 km, 97.5° (Epoch: 24 February)

Event Time Altitude Azimuth Distance (km) Brightness Sun altitude
Rises 04:35:45 0° 30° (NNE) 2,628 ? -26.3°
Reaches altitude 10° 04:38:43 10° 56° (NE) 1,733 ? -25.8°
Maximum altitude 04:40:46 14° 89° (E) 1,484 ? -25.5°
Drops below altitude 10° 04:42:48 10° 123° (ESE) 1,724 ? -25.2°
Sets 04:45:43 0° 149° (SSE) 2,602 ? -24.7°
